Retour au catalogue

COSMOS 2251 DEB

ActifLEO
NORAD 34949·DEBRIS·🇷🇺 Russia

Lancé Jun 16, 1993 depuis Plesetsk Cosmodrome

Loading…

Prochains Passages (prochaines 24 heures)

TLE

FraisSource: Space-Track

Époque: Sep 14, 2026, 10:59 UTC

1 34949U 93036AEC 26257.45766461  .00001358  00000-0  19616-3 0  9994
2 34949  74.0157 290.3918 0077907   3.8727 356.3032 14.75260533924265

Suivez COSMOS 2251 DEB en temps réel avec AllMySat

Download on the App Store